Weather History for KCUL - July, 2013

Change the Weather History Date:

Tuesday, July 9, 2013

  Actual Average (KEVV) Record (KEVV)
Temperature  
Mean Temperature 85 °F 78 °F  
Max Temperature 95 °F 89 °F 104 °F (1936)
Min Temperature 75 °F 68 °F 56 °F (1952)
Degree Days  
Heating Degree Days 0 0  
Month to date heating degree days 0  
Since 1 June heating degree days 6  
Since 1 July heating degree days 0  
Cooling Degree Days 20 13  
Month to date cooling degree days 117  
Year to date cooling degree days 550  
Since 1 June cooling degree days 415  
Growing Degree Days 35 (Base 50)    
Moisture  
Dew Point 73 °F    
Average Humidity 70    
Maximum Humidity 92    
Minimum Humidity 42    
Precipitation  
Precipitation 0.00 in 0.14 in 2.95 in (2001)
Month to date precipitation 1.19  
Year to date precipitation 25.21  
Snow  
Snow 0.00 in 0.00 in - ()
Month to date snowfall 0.0  
Since 1 June snowfall 0.0  
Since 1 July snowfall 0.0  
Snow Depth -    
Sea Level Pressure  
Sea Level Pressure 30.04 in    
Wind  
Wind Speed 6 mph (SSW)    
Max Wind Speed 13 mph    
Max Gust Speed 17 mph    
Visibility 10 miles    
Events      
T = Trace of Precipitation, MM = Missing Value Source: NWS Daily Summary

Daily Weather History Graph

Daily Weather History Graph

Search for Another Location

Airport or City:

Trip Planner

Search our weather history database for the weather conditions in past years. The results will help you decide how hot, cold, wet, or windy it might be!

Date:

Astronomy

Jul. 09, 2013 Rise Set
Actual Time 5:37 AM CDT 8:17 PM CDT
Civil Twilight 5:06 AM CDT 8:48 PM CDT
Nautical Twilight 4:28 AM CDT 9:26 PM CDT
Astronomical Twilight 3:44 AM CDT 10:10 PM CDT
Moon 6:59 AM CDT (7/9) 8:57 PM CDT (7/9)
Length of Visible Light 15h 41m
Length of Day
14h 39m
New Moon, 2% of the Moon is Illuminated
Jul 9
New Moon
Jul 15
First Quarter
Jul 22
Full
Jul 29
Last Quarter
Aug 6
New

Hourly Weather History & Observations

Time (CDT) Temp. Heat Index Dew Point Humidity Pressure Visibility Wind Dir Wind Speed Gust Speed Precip Events Conditions
12:15 AM 75.4 °F - 72.7 °F 91% 30.08 in 7.0 mi SSE 3.5 mph - N/A   Clear
12:35 AM 76.1 °F - 73.6 °F 92% 30.08 in 10.0 mi SSE 4.6 mph - N/A   Clear
12:55 AM 76.5 °F - 73.4 °F 90% 30.08 in 10.0 mi SSE 4.6 mph - N/A   Clear
1:15 AM 76.5 °F - 73.6 °F 91% 30.09 in 10.0 mi South 3.5 mph - N/A   Clear
1:35 AM 76.1 °F - 73.4 °F 91% 30.09 in 10.0 mi Calm Calm - N/A   Clear
1:55 AM 76.3 °F - 73.4 °F 91% 30.08 in 10.0 mi South 3.5 mph - N/A   Clear
2:15 AM 76.3 °F - 73.4 °F 91% 30.08 in 10.0 mi South 3.5 mph - N/A   Clear
2:35 AM 76.3 °F - 73.0 °F 90% 30.07 in 10.0 mi South 3.5 mph - N/A   Clear
2:55 AM 76.3 °F - 72.9 °F 89% 30.07 in 10.0 mi South 4.6 mph - N/A   Clear
3:15 AM 76.3 °F - 72.9 °F 89% 30.07 in 10.0 mi South 4.6 mph - N/A   Clear
3:35 AM 76.5 °F - 72.9 °F 89% 30.07 in 10.0 mi South 4.6 mph - N/A   Mostly Cloudy
3:55 AM 76.5 °F - 72.9 °F 89% 30.07 in 10.0 mi South 5.8 mph - N/A   Mostly Cloudy
4:15 AM 76.5 °F - 72.9 °F 89% 30.07 in 10.0 mi South 4.6 mph - N/A   Scattered Clouds
4:35 AM 76.3 °F - 72.7 °F 89% 30.07 in 10.0 mi South 3.5 mph - N/A   Clear
4:55 AM 76.3 °F - 72.7 °F 89% 30.08 in 10.0 mi South 4.6 mph - N/A   Scattered Clouds
5:15 AM 76.1 °F - 72.7 °F 89% 30.09 in 10.0 mi South 4.6 mph - N/A   Scattered Clouds
5:35 AM 76.1 °F - 72.7 °F 89% 30.08 in 10.0 mi South 4.6 mph - N/A   Scattered Clouds
5:55 AM 76.1 °F - 72.5 °F 89% 30.09 in 10.0 mi South 4.6 mph - N/A   Clear
6:15 AM 76.1 °F - 72.7 °F 89% 30.08 in 10.0 mi SSE 4.6 mph - N/A   Clear
6:35 AM 76.3 °F - 72.7 °F 89% 30.08 in 10.0 mi South 4.6 mph - N/A   Clear
6:55 AM 76.1 °F - 73.2 °F 91% 30.08 in 7.0 mi Calm Calm - N/A   Clear
7:15 AM 77.0 °F - 73.4 °F 89% 30.08 in 10.0 mi South 4.6 mph - N/A   Clear
7:35 AM 77.9 °F - 73.8 °F 87% 30.09 in 10.0 mi South 4.6 mph - N/A   Clear
7:55 AM 78.8 °F - 73.8 °F 84% 30.08 in 10.0 mi SSE 4.6 mph - N/A   Clear
8:15 AM 80.1 °F 84.5 °F 73.9 °F 81% 30.09 in 10.0 mi South 5.8 mph - N/A   Clear
8:35 AM 80.8 °F 85.8 °F 73.8 °F 79% 30.09 in 10.0 mi SSW 5.8 mph - N/A   Clear
8:55 AM 82.4 °F 88.4 °F 73.9 °F 75% 30.09 in 10.0 mi SSW 5.8 mph - N/A   Clear
9:15 AM 83.7 °F 90.7 °F 74.3 °F 73% 30.08 in 10.0 mi SSW 5.8 mph - N/A   Clear
9:35 AM 83.7 °F 90.4 °F 73.6 °F 72% 30.09 in 10.0 mi SW 8.1 mph - N/A   Clear
9:55 AM 85.5 °F 93.8 °F 74.5 °F 70% 30.08 in 10.0 mi SW 5.8 mph - N/A   Clear
10:15 AM 85.8 °F 94.2 °F 74.5 °F 69% 30.08 in 10.0 mi SW 6.9 mph - N/A   Clear
10:35 AM 88.7 °F 98.7 °F 75.2 °F 64% 30.08 in 10.0 mi SW 4.6 mph - N/A   Clear
10:55 AM 90.1 °F 100.6 °F 75.0 °F 61% 30.08 in 10.0 mi SW 8.1 mph - N/A   Clear
11:15 AM 91.2 °F 99.7 °F 73.0 °F 55% 30.08 in 10.0 mi SSW 10.4 mph - N/A   Clear
11:35 AM 91.8 °F 100.3 °F 73.0 °F 54% 30.08 in 10.0 mi SW 9.2 mph - N/A   Clear
11:55 AM 91.6 °F 100.5 °F 73.6 °F 55% 30.08 in 10.0 mi SW 10.4 mph - N/A   Clear
12:15 PM 92.3 °F 102.2 °F 73.8 °F 55% 30.07 in 10.0 mi SW 9.2 mph - N/A   Clear
12:21 PM 91.4 °F 100.1 °F 73.4 °F 55% 30.07 in 10.0 mi SW 10.4 mph - N/A   Clear
12:35 PM 93.4 °F 100.9 °F 71.4 °F 49% 30.07 in 10.0 mi SW 12.7 mph - N/A   Clear
12:41 PM 93.2 °F 100.5 °F 71.6 °F 49% 30.06 in 10.0 mi SSW 10.4 mph - N/A   Clear
12:55 PM 93.0 °F 100.7 °F 72.0 °F 50% 30.07 in 10.0 mi SW 12.7 mph 17.3 mph N/A   Clear
1:01 PM 93.2 °F 100.5 °F 71.6 °F 49% 30.06 in 10.0 mi SW 11.5 mph 17.3 mph N/A   Clear
1:15 PM 93.4 °F 101.5 °F 72.3 °F 50% 30.05 in 10.0 mi SW 10.4 mph - N/A   Clear
1:22 PM 93.2 °F 100.5 °F 71.6 °F 49% 30.05 in 10.0 mi SW 11.5 mph - N/A   Clear
1:35 PM 93.4 °F 101.5 °F 72.1 °F 50% 30.05 in 10.0 mi SW 11.5 mph - N/A   Clear
1:55 PM 93.9 °F 101.5 °F 71.2 °F 48% 30.05 in 10.0 mi SW 10.4 mph 16.1 mph N/A   Scattered Clouds
2:15 PM 94.5 °F 102.6 °F 72.0 °F 48% 30.04 in 10.0 mi SW 10.4 mph - N/A   Scattered Clouds
2:35 PM 95.0 °F 101.3 °F 70.2 °F 44% 30.03 in 10.0 mi South 10.4 mph - N/A   Clear
2:55 PM 95.4 °F 102.0 °F 70.3 °F 44% 30.03 in 10.0 mi SSW 10.4 mph - N/A   Scattered Clouds
3:15 PM 95.5 °F 101.2 °F 68.9 °F 42% 30.03 in 10.0 mi SW 11.5 mph - N/A   Scattered Clouds
3:35 PM 95.0 °F 101.3 °F 70.0 °F 44% 30.02 in 10.0 mi SW 11.5 mph - N/A   Clear
3:55 PM 95.5 °F 103.0 °F 70.9 °F 45% 30.01 in 10.0 mi SSW 8.1 mph - N/A   Clear
4:15 PM 94.5 °F 102.0 °F 71.4 °F 47% 30.00 in 10.0 mi SW 8.1 mph - N/A   Clear
4:35 PM 94.6 °F 101.1 °F 70.3 °F 45% 30.00 in 10.0 mi SSW 6.9 mph - N/A   Clear
4:55 PM 94.6 °F 101.8 °F 70.9 °F 46% 29.99 in 10.0 mi SSW 9.2 mph - N/A   Scattered Clouds
5:15 PM 94.5 °F 102.0 °F 71.6 °F 47% 29.99 in 10.0 mi SW 6.9 mph - N/A   Clear
5:35 PM 93.6 °F 100.7 °F 71.2 °F 48% 29.98 in 10.0 mi SW 8.1 mph - N/A   Clear
5:55 PM 91.8 °F 99.1 °F 71.6 °F 52% 29.98 in 10.0 mi SW 6.9 mph - N/A   Clear
6:15 PM 92.1 °F 99.4 °F 71.6 °F 51% 29.98 in 10.0 mi SSW 6.9 mph - N/A   Clear
6:35 PM 91.6 °F 98.8 °F 71.8 °F 52% 29.97 in 10.0 mi SSW 6.9 mph - N/A   Clear
6:55 PM 91.4 °F 99.5 °F 72.5 °F 54% 29.97 in 10.0 mi SSW 6.9 mph - N/A   Clear
7:15 PM 90.5 °F 99.2 °F 73.6 °F 57% 29.97 in 10.0 mi South 4.6 mph - N/A   Clear
7:35 PM 89.2 °F 99.0 °F 74.5 °F 62% 29.97 in 10.0 mi South 5.8 mph - N/A   Clear
7:55 PM 88.2 °F 98.0 °F 75.0 °F 65% 29.97 in 10.0 mi South 4.6 mph - N/A   Clear
8:15 PM 86.5 °F 95.9 °F 75.2 °F 69% 29.97 in 10.0 mi SSE 5.8 mph - N/A   Clear
8:35 PM 85.1 °F 94.1 °F 75.4 °F 73% 29.98 in 10.0 mi South 5.8 mph - N/A   Clear
8:55 PM 84.4 °F 93.1 °F 75.6 °F 75% 29.98 in 10.0 mi South 4.6 mph - N/A   Clear
9:15 PM 83.3 °F 91.8 °F 76.1 °F 79% 29.98 in 10.0 mi South 4.6 mph - N/A   Clear
9:35 PM 82.0 °F 89.7 °F 76.5 °F 83% 29.99 in 10.0 mi South 3.5 mph - N/A   Clear
9:55 PM 81.5 °F 88.7 °F 76.6 °F 85% 29.99 in 10.0 mi South 3.5 mph - N/A   Clear
10:15 PM 80.8 °F 87.2 °F 76.5 °F 87% 29.99 in 10.0 mi South 3.5 mph - N/A   Clear
10:35 PM 80.2 °F 86.0 °F 76.3 °F 88% 29.99 in 10.0 mi South 3.5 mph - N/A   Clear
10:55 PM 80.1 °F 85.5 °F 76.1 °F 88% 29.99 in 10.0 mi South 5.8 mph - N/A   Clear
11:15 PM 80.4 °F 86.0 °F 75.4 °F 85% 29.99 in 10.0 mi South 6.9 mph - N/A   Clear
11:35 PM 80.6 °F 86.2 °F 75.2 °F 84% 29.99 in 10.0 mi South 5.8 mph - N/A   Clear
11:55 PM 80.6 °F 85.9 °F 74.5 °F 82% 29.99 in 10.0 mi South 5.8 mph - N/A   Clear